SWA2775 KTUS-KLAX

Flight info

Callsign SWA2775
Flight time 1h 16m
Altitude 34000
Route BURRO5 GBN J104 WLVRN ESTWD HLYWD1
Aircraft B737/M-SDE2E3FGHIRWXY/LB1

Departure

Time 2026-04-24 14:41
Airport Tucson International Airport (KTUS)

Arrival

Time 2026-04-24 15:57
Airport Los Angeles International Airport (KLAX)
Time Latitude Longitude Altitude Speed Heading
2026-04-24 14:12 32.11856 -110.93737 2614 ft 0 kts 58°
2026-04-24 14:33 32.11854 -110.93741 2614 ft 3 kts 58°
2026-04-24 14:33 32.11840 -110.93768 2614 ft 4 kts 58°
2026-04-24 14:33 32.11825 -110.93794 2613 ft 3 kts 58°
2026-04-24 14:33 32.11823 -110.93799 2613 ft 0 kts 58°
2026-04-24 14:37 32.11833 -110.93797 2613 ft 4 kts 350°
2026-04-24 14:37 32.11863 -110.93856 2612 ft 12 kts 313°
2026-04-24 14:37 32.11893 -110.93939 2609 ft 12 kts 244°
2026-04-24 14:37 32.11888 -110.94022 2607 ft 11 kts 316°
2026-04-24 14:38 32.11942 -110.94083 2604 ft 11 kts 316°
2026-04-24 14:38 32.12013 -110.94168 2602 ft 18 kts 315°
2026-04-24 14:38 32.12108 -110.94277 2599 ft 19 kts 314°
2026-04-24 14:38 32.12200 -110.94386 2589 ft 18 kts 315°
2026-04-24 14:39 32.12290 -110.94491 2587 ft 18 kts 315°
2026-04-24 14:39 32.12376 -110.94592 2581 ft 17 kts 315°
2026-04-24 14:39 32.12419 -110.94671 2587 ft 9 kts 253°
2026-04-24 14:39 32.12375 -110.94728 2584 ft 10 kts 225°
2026-04-24 14:40 32.12321 -110.94771 2579 ft 10 kts 170°
2026-04-24 14:40 32.12311 -110.94764 2584 ft 0 kts 137°
2026-04-24 14:40 32.12224 -110.94660 2590 ft 51 kts 135°
2026-04-24 14:41 32.11797 -110.94160 2605 ft 119 kts 135°
2026-04-24 14:41 32.11081 -110.93310 2697 ft 166 kts 136°
2026-04-24 14:41 32.10246 -110.92354 3497 ft 168 kts 136°
2026-04-24 14:41 32.09421 -110.91404 4309 ft 167 kts 136°
2026-04-24 14:42 32.08609 -110.90449 5089 ft 164 kts 136°
2026-04-24 14:42 32.07792 -110.89482 5817 ft 169 kts 137°
2026-04-24 14:42 32.06920 -110.88455 6285 ft 194 kts 136°
2026-04-24 14:42 32.05869 -110.87221 6541 ft 225 kts 136°
2026-04-24 14:43 32.04712 -110.85862 6758 ft 250 kts 137°
2026-04-24 14:43 32.03442 -110.84375 7218 ft 266 kts 137°
2026-04-24 14:43 32.02060 -110.82795 7585 ft 284 kts 143°
2026-04-24 14:43 32.00295 -110.81783 8424 ft 284 kts 172°
2026-04-24 14:44 31.98356 -110.81865 9417 ft 279 kts 200°
2026-04-24 14:44 31.96645 -110.82908 10349 ft 279 kts 217°
2026-04-24 14:44 31.95026 -110.84323 10712 ft 304 kts 220°
2026-04-24 14:44 31.93494 -110.86156 10879 ft 328 kts 239°
2026-04-24 14:45 31.92646 -110.88711 11290 ft 343 kts 261°
2026-04-24 14:45 31.92470 -110.91531 12082 ft 347 kts 268°
2026-04-24 14:45 31.92780 -110.94353 12949 ft 352 kts 287°
2026-04-24 14:45 31.93850 -110.96955 13864 ft 357 kts 300°
2026-04-24 14:46 31.95278 -110.99367 14629 ft 361 kts 303°
2026-04-24 14:46 31.96787 -111.01753 15399 ft 365 kts 303°
2026-04-24 14:46 31.98313 -111.04149 16223 ft 366 kts 303°
2026-04-24 14:46 31.99834 -111.06563 17015 ft 369 kts 303°
2026-04-24 14:47 32.01356 -111.09010 17741 ft 372 kts 303°
2026-04-24 14:47 32.02883 -111.11486 18477 ft 375 kts 303°
2026-04-24 14:47 32.04418 -111.13986 19142 ft 377 kts 302°
2026-04-24 14:47 32.05963 -111.16508 19789 ft 381 kts 302°
2026-04-24 14:48 32.07519 -111.19050 20411 ft 384 kts 302°
2026-04-24 14:48 32.09176 -111.21541 21037 ft 389 kts 307°
2026-04-24 14:48 32.10989 -111.23930 21663 ft 393 kts 308°
2026-04-24 14:48 32.12858 -111.26295 22297 ft 395 kts 308°
2026-04-24 14:49 32.14740 -111.28674 22887 ft 398 kts 308°
2026-04-24 14:49 32.16622 -111.31080 23427 ft 401 kts 308°
2026-04-24 14:49 32.18505 -111.33516 23868 ft 404 kts 307°
2026-04-24 14:49 32.20394 -111.35977 24331 ft 406 kts 307°
2026-04-24 14:50 32.22291 -111.38459 24811 ft 407 kts 307°
2026-04-24 14:50 32.24190 -111.40948 25284 ft 409 kts 307°
2026-04-24 14:50 32.26097 -111.43448 25736 ft 410 kts 307°
2026-04-24 14:50 32.28009 -111.45961 26176 ft 412 kts 306°
2026-04-24 14:51 32.29759 -111.48630 26580 ft 411 kts 300°
2026-04-24 14:51 32.31358 -111.51432 27000 ft 412 kts 298°
2026-04-24 14:51 32.32915 -111.54279 27478 ft 412 kts 298°
2026-04-24 14:51 32.34465 -111.57131 27935 ft 413 kts 298°
2026-04-24 14:52 32.36027 -111.59986 28385 ft 414 kts 298°
2026-04-24 14:52 32.37603 -111.62840 28945 ft 413 kts 298°
2026-04-24 14:52 32.39174 -111.65660 29617 ft 409 kts 298°
2026-04-24 14:52 32.40739 -111.68456 30272 ft 405 kts 298°
2026-04-24 14:53 32.42290 -111.71219 30834 ft 402 kts 298°
2026-04-24 14:53 32.43831 -111.73966 31345 ft 400 kts 298°
2026-04-24 14:53 32.45368 -111.76705 31852 ft 398 kts 297°
2026-04-24 14:53 32.46890 -111.79419 32381 ft 395 kts 297°
2026-04-24 14:54 32.48383 -111.82085 32851 ft 393 kts 297°
2026-04-24 14:54 32.49891 -111.84780 33296 ft 391 kts 297°
2026-04-24 14:54 32.51387 -111.87454 33840 ft 389 kts 297°
2026-04-24 14:55 32.53909 -111.91974 33888 ft 394 kts 296°
2026-04-24 14:55 32.57396 -111.98221 33890 ft 387 kts 296°
2026-04-24 14:56 32.60357 -112.03536 33887 ft 386 kts 296°
2026-04-24 14:56 32.63317 -112.08862 33889 ft 387 kts 296°
2026-04-24 14:57 32.66278 -112.14194 33873 ft 387 kts 296°
2026-04-24 14:57 32.69238 -112.19530 33892 ft 387 kts 296°
2026-04-24 14:58 32.72204 -112.24886 33891 ft 389 kts 296°
2026-04-24 14:58 32.75177 -112.30261 33890 ft 389 kts 296°
2026-04-24 14:59 32.78147 -112.35637 33896 ft 389 kts 296°
2026-04-24 14:59 32.81117 -112.41022 33898 ft 390 kts 296°
2026-04-24 15:00 32.84088 -112.46417 33882 ft 390 kts 296°
2026-04-24 15:00 32.87054 -112.51811 33910 ft 390 kts 296°
2026-04-24 15:01 32.90023 -112.57220 33936 ft 391 kts 296°
2026-04-24 15:01 32.92997 -112.62643 33935 ft 391 kts 296°
2026-04-24 15:02 32.96013 -112.68049 33930 ft 395 kts 300°
2026-04-24 15:02 32.99663 -112.73009 33926 ft 400 kts 304°
2026-04-24 15:03 33.02812 -112.77032 33924 ft 399 kts 304°
2026-04-24 15:03 33.07172 -112.82682 33881 ft 398 kts 304°
2026-04-24 15:04 33.10888 -112.87574 33887 ft 398 kts 304°
2026-04-24 15:04 33.14590 -112.92475 33881 ft 397 kts 303°
2026-04-24 15:05 33.18306 -112.97405 33885 ft 396 kts 303°
2026-04-24 15:05 33.21963 -113.02264 33884 ft 396 kts 303°
2026-04-24 15:06 33.25635 -113.07148 33878 ft 395 kts 303°
2026-04-24 15:06 33.29304 -113.12037 33888 ft 395 kts 303°
2026-04-24 15:07 33.32975 -113.16932 33891 ft 395 kts 303°
2026-04-24 15:07 33.36643 -113.21832 33884 ft 395 kts 303°
2026-04-24 15:08 33.39689 -113.25905 33885 ft 395 kts 303°
2026-04-24 15:08 33.43350 -113.30808 33886 ft 395 kts 303°
2026-04-24 15:09 33.47007 -113.35712 33902 ft 395 kts 303°
2026-04-24 15:09 33.50660 -113.40636 33889 ft 395 kts 303°
2026-04-24 15:10 33.54307 -113.45563 33954 ft 395 kts 303°
2026-04-24 15:10 33.57951 -113.50489 33974 ft 395 kts 303°
2026-04-24 15:11 33.61603 -113.55417 33976 ft 396 kts 303°
2026-04-24 15:11 33.65268 -113.60356 33975 ft 396 kts 303°
2026-04-24 15:12 33.68928 -113.65298 33956 ft 397 kts 303°
2026-04-24 15:12 33.74424 -113.72736 33934 ft 397 kts 303°
2026-04-24 15:13 33.78090 -113.77712 33871 ft 397 kts 302°
2026-04-24 15:13 33.81020 -113.83176 33875 ft 384 kts 288°
2026-04-24 15:14 33.83017 -113.89094 33877 ft 382 kts 286°
2026-04-24 15:14 33.84997 -113.95043 33881 ft 383 kts 287°
2026-04-24 15:15 33.86995 -114.00986 33870 ft 384 kts 287°
2026-04-24 15:15 33.89001 -114.06938 33857 ft 383 kts 287°
2026-04-24 15:16 33.90867 -114.12923 33855 ft 379 kts 279°
2026-04-24 15:16 33.91186 -114.14571 33878 ft 0 kts 278°
2026-04-24 15:17 33.91476 -114.16855 33862 ft 378 kts 276°
2026-04-24 15:18 33.92464 -114.23070 33870 ft 379 kts 278°
2026-04-24 15:18 33.93530 -114.29288 33870 ft 379 kts 278°
2026-04-24 15:19 33.94595 -114.35518 33866 ft 380 kts 278°
2026-04-24 15:19 33.95654 -114.41765 33852 ft 381 kts 277°
2026-04-24 15:20 33.96706 -114.48021 33876 ft 382 kts 278°
2026-04-24 15:20 33.97758 -114.54298 33873 ft 382 kts 278°
2026-04-24 15:21 33.98808 -114.60581 33868 ft 382 kts 278°
2026-04-24 15:21 33.99852 -114.66855 33884 ft 383 kts 278°
2026-04-24 15:22 34.00898 -114.73154 33879 ft 383 kts 278°
2026-04-24 15:23 34.02459 -114.82601 33885 ft 383 kts 277°
2026-04-24 15:23 34.04011 -114.92039 33881 ft 382 kts 277°
2026-04-24 15:25 34.06405 -115.06689 33881 ft 382 kts 277°
2026-04-24 15:26 34.09125 -115.23448 33888 ft 382 kts 277°
2026-04-24 15:27 34.12165 -115.42368 33908 ft 383 kts 277°
2026-04-24 15:29 34.15190 -115.61384 33908 ft 385 kts 277°
2026-04-24 15:30 34.16278 -115.70959 33912 ft 382 kts 263°
2026-04-24 15:31 34.14968 -115.83708 33949 ft 383 kts 262°
2026-04-24 15:33 34.12467 -116.09266 33986 ft 382 kts 263°
2026-04-24 15:34 34.10913 -116.25004 32886 ft 393 kts 263°
2026-04-24 15:35 34.09925 -116.34638 31175 ft 376 kts 262°
2026-04-24 15:35 34.09259 -116.40821 30257 ft 371 kts 262°
2026-04-24 15:35 34.08925 -116.43921 29776 ft 374 kts 262°
2026-04-24 15:36 34.08589 -116.47039 29256 ft 375 kts 262°
2026-04-24 15:36 34.07924 -116.53211 28312 ft 368 kts 262°
2026-04-24 15:36 34.07594 -116.56261 27872 ft 365 kts 262°
2026-04-24 15:37 34.07268 -116.59285 27407 ft 363 kts 262°
2026-04-24 15:37 34.06973 -116.62302 26952 ft 361 kts 263°
2026-04-24 15:37 34.06702 -116.65267 26543 ft 360 kts 263°
2026-04-24 15:37 34.06430 -116.68271 26096 ft 360 kts 263°
2026-04-24 15:38 34.06158 -116.71265 25643 ft 359 kts 263°
2026-04-24 15:38 34.05883 -116.74251 25222 ft 358 kts 263°
2026-04-24 15:38 34.05605 -116.77229 24798 ft 357 kts 263°
2026-04-24 15:38 34.05328 -116.80201 24359 ft 357 kts 263°
2026-04-24 15:39 34.05049 -116.83177 23913 ft 357 kts 263°
2026-04-24 15:39 34.04769 -116.86149 23459 ft 357 kts 263°
2026-04-24 15:39 34.04488 -116.89116 22964 ft 354 kts 262°
2026-04-24 15:39 34.04145 -116.92033 22503 ft 349 kts 261°
2026-04-24 15:40 34.03760 -116.94862 22442 ft 335 kts 260°
2026-04-24 15:40 34.03381 -116.97661 21767 ft 340 kts 260°
2026-04-24 15:40 34.03007 -117.00483 21257 ft 341 kts 261°
2026-04-24 15:40 34.02640 -117.03296 20845 ft 340 kts 261°
2026-04-24 15:41 34.02297 -117.06101 20414 ft 339 kts 261°
2026-04-24 15:41 34.01968 -117.08908 20001 ft 338 kts 262°
2026-04-24 15:41 34.01641 -117.11713 19587 ft 338 kts 262°
2026-04-24 15:41 34.01313 -117.14509 19180 ft 337 kts 262°
2026-04-24 15:42 34.00982 -117.17305 18764 ft 337 kts 262°
2026-04-24 15:42 34.00649 -117.20100 18409 ft 337 kts 262°
2026-04-24 15:42 34.00316 -117.22892 17929 ft 336 kts 262°
2026-04-24 15:42 33.99985 -117.25657 17486 ft 332 kts 262°
2026-04-24 15:43 33.99657 -117.28389 17073 ft 326 kts 261°
2026-04-24 15:43 33.99334 -117.31083 16634 ft 324 kts 261°
2026-04-24 15:43 33.99016 -117.33766 16268 ft 323 kts 261°
2026-04-24 15:43 33.98699 -117.36477 15859 ft 322 kts 261°
2026-04-24 15:44 33.98391 -117.39110 15468 ft 321 kts 261°
2026-04-24 15:44 33.98078 -117.41773 15077 ft 321 kts 261°
2026-04-24 15:44 33.97764 -117.44431 14679 ft 320 kts 261°
2026-04-24 15:44 33.97451 -117.47086 14289 ft 319 kts 262°
2026-04-24 15:45 33.97447 -117.49726 13887 ft 315 kts 278°
2026-04-24 15:45 33.97966 -117.52270 13499 ft 310 kts 283°
2026-04-24 15:45 33.98572 -117.54747 13100 ft 306 kts 284°
2026-04-24 15:45 33.99182 -117.57197 12711 ft 306 kts 284°
2026-04-24 15:46 33.99784 -117.59652 12339 ft 306 kts 284°
2026-04-24 15:46 34.00371 -117.62100 11968 ft 306 kts 284°
2026-04-24 15:46 34.00956 -117.64567 11590 ft 306 kts 284°
2026-04-24 15:46 34.01537 -117.67033 11222 ft 306 kts 284°
2026-04-24 15:47 34.02072 -117.69502 10844 ft 302 kts 278°
2026-04-24 15:47 34.02060 -117.71993 10490 ft 295 kts 263°
2026-04-24 15:47 34.01806 -117.74423 10135 ft 290 kts 263°
2026-04-24 15:47 34.01555 -117.76798 9962 ft 278 kts 263°
2026-04-24 15:48 34.01319 -117.79045 9768 ft 267 kts 263°
2026-04-24 15:48 34.01094 -117.81296 9167 ft 268 kts 263°
2026-04-24 15:48 34.00879 -117.83479 8774 ft 263 kts 263°
2026-04-24 15:48 34.00668 -117.85636 8433 ft 256 kts 263°
2026-04-24 15:49 34.00460 -117.87755 8121 ft 255 kts 263°
2026-04-24 15:49 34.00251 -117.89883 7810 ft 255 kts 263°
2026-04-24 15:49 34.00053 -117.92006 7492 ft 255 kts 265°
2026-04-24 15:49 33.99934 -117.94144 7185 ft 256 kts 266°
2026-04-24 15:50 33.99780 -117.96281 6875 ft 257 kts 264°
2026-04-24 15:50 33.99583 -117.98402 6737 ft 251 kts 263°
2026-04-24 15:50 33.99371 -118.00465 6475 ft 245 kts 263°
2026-04-24 15:50 33.99162 -118.02436 6206 ft 238 kts 263°
2026-04-24 15:51 33.98955 -118.04380 5910 ft 228 kts 263°
2026-04-24 15:51 33.98758 -118.06240 5618 ft 222 kts 263°
2026-04-24 15:51 33.98563 -118.08079 5325 ft 220 kts 263°
2026-04-24 15:51 33.98367 -118.09927 5022 ft 220 kts 263°
2026-04-24 15:52 33.98240 -118.11136 4831 ft 219 kts 263°
2026-04-24 15:52 33.97989 -118.13510 4420 ft 210 kts 263°
2026-04-24 15:52 33.97810 -118.15213 4154 ft 206 kts 262°
2026-04-24 15:52 33.97631 -118.16922 3879 ft 206 kts 262°
2026-04-24 15:53 33.97450 -118.18643 3606 ft 209 kts 262°
2026-04-24 15:53 33.97267 -118.20386 3336 ft 211 kts 262°
2026-04-24 15:53 33.97087 -118.22113 3057 ft 210 kts 261°
2026-04-24 15:53 33.96904 -118.23860 2778 ft 209 kts 261°
2026-04-24 15:54 33.96726 -118.25570 2494 ft 199 kts 261°
2026-04-24 15:54 33.96562 -118.27153 2227 ft 183 kts 260°
2026-04-24 15:54 33.96414 -118.28583 2022 ft 160 kts 260°
2026-04-24 15:54 33.96283 -118.29843 1803 ft 144 kts 260°
2026-04-24 15:55 33.96203 -118.30615 1681 ft 138 kts 259°
2026-04-24 15:55 33.96083 -118.31758 1491 ft 138 kts 259°
2026-04-24 15:55 33.95964 -118.32902 1319 ft 138 kts 260°
2026-04-24 15:55 33.95844 -118.34062 1127 ft 138 kts 261°
2026-04-24 15:56 33.95725 -118.35216 941 ft 140 kts 261°
2026-04-24 15:56 33.95603 -118.36390 742 ft 142 kts 261°
2026-04-24 15:56 33.95478 -118.37575 563 ft 142 kts 263°
2026-04-24 15:56 33.95360 -118.38763 352 ft 143 kts 263°
2026-04-24 15:57 33.95237 -118.39951 176 ft 145 kts 263°
2026-04-24 15:57 33.95116 -118.41125 91 ft 128 kts 263°
2026-04-24 15:57 33.95035 -118.41921 94 ft 64 kts 263°
2026-04-24 15:57 33.94994 -118.42245 93 ft 28 kts 254°
2026-04-24 15:58 33.94898 -118.42429 93 ft 23 kts 225°
2026-04-24 15:58 33.94765 -118.42488 98 ft 17 kts 177°
2026-04-24 15:58 33.94664 -118.42438 95 ft 17 kts 103°
2026-04-24 15:58 33.94676 -118.42297 95 ft 17 kts 83°
2026-04-24 15:59 33.94690 -118.42163 94 ft 16 kts 83°
2026-04-24 15:59 33.94703 -118.42032 92 ft 15 kts 83°
2026-04-24 15:59 33.94715 -118.41908 92 ft 15 kts 83°
2026-04-24 15:59 33.94727 -118.41788 92 ft 14 kts 83°
2026-04-24 16:00 33.94739 -118.41668 92 ft 17 kts 83°
2026-04-24 16:00 33.94754 -118.41523 93 ft 17 kts 83°
2026-04-24 16:00 33.94778 -118.41385 94 ft 16 kts 72°
2026-04-24 16:00 33.94740 -118.41291 92 ft 15 kts 163°
2026-04-24 16:01 33.94711 -118.41193 92 ft 14 kts 71°
2026-04-24 16:01 33.94731 -118.41080 94 ft 13 kts 83°
2026-04-24 16:01 33.94742 -118.40970 92 ft 13 kts 83°
2026-04-24 16:01 33.94754 -118.40858 92 ft 16 kts 83°
2026-04-24 16:02 33.94770 -118.40703 93 ft 20 kts 83°
2026-04-24 16:02 33.94786 -118.40538 92 ft 19 kts 83°
2026-04-24 16:02 33.94802 -118.40384 94 ft 18 kts 83°
2026-04-24 16:02 33.94824 -118.40236 92 ft 18 kts 78°
2026-04-24 16:03 33.94841 -118.40093 92 ft 17 kts 83°
2026-04-24 16:03 33.94806 -118.40006 94 ft 12 kts 176°
2026-04-24 16:03 33.94774 -118.40043 93 ft 3 kts 241°
2026-04-24 16:03 33.94765 -118.40061 92 ft 0 kts 241°